Location: Hurstbourne Priors
(51.2000°N, 1.3667°W)
Time: 20:55:15
(UTC+00:00)

Altair - Pass Details

Date: 20 April 2021
Orbit: 1501 x 1683 km, 47.2° (Epoch: 13 May)

Event Time Altitude Azimuth Distance (km) Brightness Sun altitude
Rises 13:13:52 0° 286° (WNW) 4,722 10.2 48.1°
Reaches altitude 10° 13:18:13 10° 269° (W) 3,706 9.9 47.7°
Maximum altitude 13:23:49 18° 231° (SW) 3,092 10.2 47.3°
Drops below altitude 10° 13:29:21 10° 193° (SSW) 3,648 10.4 46.9°
Sets 13:33:37 0° 176° (S) 4,619 10.5 46.5°
